Tracking 30746 objects as of 20-Jun-2025
HD Live streaming from Space Station
objects crossing your sky now

STARLINK-30762

Track STARLINK-30762 now!
10-day predictions
STARLINK-30762 is classified as:


NORAD ID: 58197
Int'l Code: 2023-167Y
Perigee: 565.3 km
Apogee: 567.1 km
Inclination: 43.0 °
Period: 95.8 minutes
Semi major axis: 6937 km
RCS: Unknown
Launch date: October 30, 2023
Source: United States (US)
Launch site: AIR FORCE EASTERN TEST RANGE (AFETR)
Your satellite tracking list
Your tracking list is empty




NASA's NSSDC Master Catalog

Two Line Element Set (TLE):
1 58197U 23167Y   25169.62818757  .00000149  00000-0  26140-4 0  9997
2 58197  43.0036 140.7536 0001299 287.0170  73.0529 15.02535817 91238
Source of the keplerian elements: AFSPC